[[{"header":{"parameterUnit":"m.s-1","parameterCategory":1,"la1":30.2991,"la2":30.254,"lo1":-89.0895,"lo2":-89.0444,"dy":0.0017,"dx":0.0017,"nx":28,"ny":28,"refTime":"2025-03-20T09:00:00:Z","depth":0,"parameterNumber":2,"parameterNumberName":"U-component_of_WINDS"},"data":[0,0,0,0,0,0,0,0,0,0,0,0,0,0,0,0,0,0,0,0,0,0,0,0,0,0,0,0,0,0,0,0,0,0,0,0,0,0,0,0,0,0,0,0,0,0,0,0,0,0,0,0,0,0,0,0,0,0,6.2534,6.2534,0,6.2603,6.2603,6.2604,6.2539,6.2537,6.2534,6.2532,6.2599,6.2603,6.2607,0,0,0,0,0,0,0,0,0,0,0,0,0,6.2345,6.2348,6.2534,6.2535,6.2535,6.2602,6.2603,6.2604,6.254,6.2537,6.2533,6.253,6.2598,6.2603,6.2608,0,0,0,0,0,0,0,0,0,0,0,0,0,6.2421,6.235,6.2534,6.2511,6.251,6.2602,6.2603,6.2604,6.254,6.2536,6.2533,6.2529,6.2596,6.2602,6.2608,6.2725,0,0,6.2628,6.263,0,0,0,0,0,0,0,0,6.2417,6.2428,6.2514,6.2513,6.2512,6.2558,6.2561,6.2645,6.2541,6.2529,6.2532,6.2527,6.2589,6.2595,6.2617,6.2728,6.2731,6.2628,6.2632,6.2635,6.2637,0,0,0,0,0,0,0,6.2412,6.2425,6.2561,6.2515,6.2514,6.2497,6.2504,6.2577,6.2579,6.253,6.2525,6.2534,6.2587,6.2611,6.2618,6.2732,6.2628,6.2634,6.2638,6.264,6.2944,6.2948,0,0,0,0,0,0,6.2409,6.2421,6.2559,6.2563,6.2454,6.2504,6.2511,6.2547,6.2579,6.258,6.2538,6.2531,6.2602,6.261,6.262,6.2759,6.2635,6.2641,6.2644,6.294,6.2945,6.295,0,0,0,0,0,0,6.2405,6.2422,6.2556,6.2491,6.2507,6.2511,6.2552,6.2551,6.2574,6.2585,6.2584,6.2561,6.2599,6.2611,6.27,6.276,6.2644,6.2649,6.2935,6.2942,6.2947,6.3038,0,0,0,0,0,0,6.24,6.2421,6.2466,6.2492,6.251,6.2636,6.2556,6.2555,6.2585,6.2578,6.2607,6.2608,6.2597,6.2691,6.2706,6.2767,6.2654,6.2929,6.2938,6.2945,6.303,6.3047,6.3062,0,0,0,0,0,6.2394,6.2488,6.2468,6.2485,6.2566,6.2639,6.2649,6.2636,6.2591,6.2635,6.2642,6.2607,6.2752,6.27,6.2717,6.2781,6.2926,6.2935,6.2945,6.3023,6.3044,6.3061,0,0,0,0,0,0,6.2466,6.2491,6.2469,6.2575,6.2606,6.2628,6.2684,6.2658,6.2702,6.2692,6.2673,6.268,6.2774,6.2786,6.2729,6.2896,6.2831,6.2845,6.2885,6.2905,6.292,6.2915,6.2659,0,0,0,0,0,6.2495,6.2553,6.2571,6.2662,6.2679,6.2679,6.271,6.2698,6.2728,6.274,6.2754,6.2784,6.2836,6.2871,6.292,6.3032,6.3037,6.3084,6.31,6.3113,6.3124,6.3185,6.3206,6.2981,6.2981,6.2981,0,0,6.2554,6.2575,6.2612,6.2677,6.2699,6.276,6.269,6.2756,6.28,6.275,6.2835,6.2847,6.2879,6.298,6.3026,6.2993,6.3188,6.3125,6.3135,6.314,6.3197,6.3219,6.3238,6.2988,6.2987,6.2986,0,0,6.2692,6.2714,6.2793,6.2817,6.2853,6.2853,6.2872,6.2899,6.2905,6.299,6.2954,6.3006,6.3096,6.3122,6.3146,6.3297,6.3266,6.3313,6.3396,6.3456,6.3473,6.3489,6.3543,6.3563,6.3325,6.3325,6.3325,0,6.2761,6.2851,6.2836,6.2906,6.2936,6.2895,6.2975,6.2998,6.3048,6.3069,6.3032,6.3146,6.3165,6.3272,6.3309,6.3331,6.3352,6.3309,6.3472,6.3488,6.3502,6.3553,6.3574,6.3331,6.333,6.3329,6.3329,0,6.2934,6.2997,6.3056,6.3107,6.3143,6.3217,6.3214,6.3253,6.3237,6.3241,6.3329,6.3351,6.3404,6.3429,6.3413,6.3534,6.3513,6.3475,6.3409,6.3529,6.3577,6.3597,6.3339,6.3337,6.3335,6.3334,0,0,6.3118,6.3162,6.3184,6.3206,6.3243,6.3291,6.3364,6.3417,6.3451,6.3487,6.3547,6.3626,6.3591,6.3619,6.3607,6.3659,6.3778,6.3615,6.3615,6.3644,6.3913,6.3942,6.3965,6.3758,6.3762,6.3765,6.391,0,6.3258,6.3386,6.3376,6.3496,6.3554,6.3517,6.358,6.361,6.3616,6.3666,6.3672,6.3728,6.3678,6.3695,6.3745,6.3753,6.3832,6.3742,6.3814,6.3817,6.3807,6.399,6.402,6.4156,6.3929,6.3932,6.3934,0,6.3438,6.3482,6.3609,6.3639,6.3663,6.372,6.3769,6.3817,6.385,6.385,6.3883,6.3862,6.3935,6.3869,6.3969,6.3909,6.3938,6.3946,6.3951,6.3957,6.3882,6.4,6.4199,6.4219,6.3964,6.3961,6.3959,0,6.3561,6.3652,6.3739,6.376,6.3797,6.3838,6.3855,6.3884,6.3917,6.396,6.3981,6.4031,6.4058,6.4097,6.4091,6.4043,6.4194,6.4126,6.4196,6.4196,6.4229,6.4227,6.4435,6.4248,6.4247,6.4247,6.4247,0,6.3718,6.3797,6.3795,6.3849,6.3937,6.3925,6.4011,6.4023,6.405,6.4105,6.4076,6.4128,6.4116,6.4168,6.4164,6.4248,6.426,6.4263,6.4261,6.4266,6.4265,6.4284,6.4274,6.4253,6.4251,6.425,6.4249,0,6.387,6.3871,6.3965,6.3993,6.4002,6.4065,6.4088,6.4139,6.4143,6.4214,6.423,6.4236,6.4297,6.4294,6.4361,6.4358,6.4462,6.4449,6.4452,6.4449,6.4519,6.4513,6.4746,6.4776,6.457,6.4572,6.4573,0,6.397,6.403,6.4065,6.4101,6.4121,6.4179,6.4213,6.4203,6.424,6.4283,6.4329,6.4387,6.4432,6.453,6.454,6.4592,6.458,6.4658,6.4587,6.4591,6.4581,6.4578,6.4584,6.4672,6.4674,6.4676,6.4678,0,6.4147,6.4146,6.4197,6.4249,6.4292,6.4332,6.4369,6.4399,6.4394,6.4437,6.4499,6.4534,6.4605,6.4662,6.4712,6.4729,6.4703,6.47,6.4719,6.4724,6.4724,6.4725,6.449,6.4695,6.4693,6.4692,6.4691,6.469,6.4276,6.4329,6.4362,6.442,6.4447,6.4483,6.4533,6.4544,6.4596,6.4653,6.4644,6.4714,6.4746,6.4811,6.4833,6.4886,6.4858,6.4886,6.4893,6.4899,6.4908,6.4716,6.4895,6.4895,6.4894,6.4894,6.4894,0,6.4453,6.4473,6.4527,6.458,6.4626,6.4599,6.4639,6.4679,6.4741,6.4774,6.482,6.4892,6.4948,6.4964,6.5018,6.5058,6.5048,6.5073,6.5069,6.5074,6.4929,6.4908,6.508,6.508,6.508,6.508,6.508,6.508,6.455,6.4637,6.464,6.4741,6.476,6.4829,6.4854,6.4887,6.4913,6.4995,6.5042,6.5052,6.5079,6.5135,6.5185,6.5188,6.521,6.524,6.5238,6.5103,6.5084,6.5066,6.5046,6.5244,6.5245,6.5378,6.5379,6.538]},{"header":{"parameterUnit":"m.s-1","parameterCategory":1,"la1":30.2991,"la2":30.254,"lo1":-89.0895,"lo2":-89.0444,"dy":0.0017,"dx":0.0017,"nx":28,"ny":28,"refTime":"2025-03-20T09:00:00:Z","depth":0,"parameterNumber":3,"parameterNumberName":"V-component_of_WINDS"},"data":[0,0,0,0,0,0,0,0,0,0,0,0,0,0,0,0,0,0,0,0,0,0,0,0,0,0,0,0,0,0,0,0,0,0,0,0,0,0,0,0,0,0,0,0,0,0,0,0,0,0,0,0,0,0,0,0,0,0,-7.2998,-7.2999,0,-7.3163,-7.3165,-7.3166,-7.3128,-7.3125,-7.3122,-7.3119,-7.3282,-7.3289,-7.3296,0,0,0,0,0,0,0,0,0,0,0,0,0,-7.2645,-7.2652,-7.2997,-7.3,-7.3002,-7.3162,-7.3165,-7.3167,-7.3129,-7.3125,-7.3121,-7.3118,-7.328,-7.3288,-7.3297,0,0,0,0,0,0,0,0,0,0,0,0,0,-7.2803,-7.2654,-7.2997,-7.3002,-7.3004,-7.3162,-7.3165,-7.3167,-7.313,-7.3125,-7.312,-7.3116,-7.3277,-7.3287,-7.3298,-7.3459,0,0,-7.3331,-7.3336,0,0,0,0,0,0,0,0,-7.2794,-7.2816,-7.2999,-7.3002,-7.3005,-7.312,-7.31,-7.3265,-7.3131,-7.3082,-7.3119,-7.3114,-7.3232,-7.3246,-7.3287,-7.3466,-7.3473,-7.3332,-7.3339,-7.3344,-7.3347,0,0,0,0,0,0,0,-7.2783,-7.2809,-7.3063,-7.3002,-7.3006,-7.2995,-7.3012,-7.3131,-7.3181,-7.3086,-7.3084,-7.3104,-7.3232,-7.3277,-7.329,-7.3476,-7.3332,-7.3342,-7.3348,-7.3353,-7.3797,-7.3802,0,0,0,0,0,0,-7.2771,-7.28,-7.3057,-7.3068,-7.2886,-7.3005,-7.3024,-7.3088,-7.3179,-7.3189,-7.3108,-7.3102,-7.326,-7.3278,-7.3296,-7.3491,-7.3343,-7.3354,-7.336,-7.3792,-7.3798,-7.3804,0,0,0,0,0,0,-7.2763,-7.2794,-7.3051,-7.2933,-7.2965,-7.3016,-7.3088,-7.3094,-7.3138,-7.3196,-7.3204,-7.3144,-7.3257,-7.3281,-7.3419,-7.3496,-7.3359,-7.3368,-7.3785,-7.3794,-7.3801,-7.3882,0,0,0,0,0,0,-7.2753,-7.2792,-7.2854,-7.2935,-7.2972,-7.3173,-7.3093,-7.31,-7.3158,-7.3151,-7.3233,-7.3241,-7.3255,-7.3403,-7.343,-7.3509,-7.3377,-7.3779,-7.3789,-7.3798,-7.3873,-7.3892,-7.3909,0,0,0,0,0,-7.2741,-7.2869,-7.2858,-7.2889,-7.3051,-7.3178,-7.3198,-7.3213,-7.3164,-7.3227,-7.3264,-7.3239,-7.3484,-7.3418,-7.3448,-7.3531,-7.3774,-7.3786,-7.3798,-7.3865,-7.3888,-7.3908,0,0,0,0,0,0,-7.2793,-7.2879,-7.2868,-7.3026,-7.3095,-7.3171,-7.325,-7.3237,-7.332,-7.331,-7.3324,-7.3342,-7.3484,-7.3521,-7.3446,-7.3692,-7.3621,-7.364,-7.3663,-7.3685,-7.3703,-7.369,-7.3386,0,0,0,0,0,-7.2824,-7.2921,-7.299,-7.3123,-7.3158,-7.3199,-7.3254,-7.3261,-7.3332,-7.336,-7.3407,-7.3476,-7.3568,-7.3629,-7.3717,-7.3878,-7.3895,-7.395,-7.3968,-7.3982,-7.3998,-7.4087,-7.4112,-7.3843,-7.3843,-7.3842,0,0,-7.2886,-7.2945,-7.3005,-7.3135,-7.3189,-7.3288,-7.3223,-7.333,-7.3404,-7.3375,-7.351,-7.3548,-7.3625,-7.3776,-7.3845,-7.3811,-7.4076,-7.3997,-7.4008,-7.4016,-7.4102,-7.4127,-7.415,-7.3851,-7.3849,-7.3848,0,0,-7.3051,-7.3106,-7.3224,-7.328,-7.3364,-7.3391,-7.3419,-7.3498,-7.3522,-7.3658,-7.364,-7.3726,-7.3885,-7.3941,-7.399,-7.418,-7.416,-7.4208,-7.43,-7.4387,-7.4408,-7.4427,-7.4495,-7.4519,-7.4223,-7.4224,-7.4224,0,-7.3118,-7.3269,-7.3285,-7.3396,-7.3453,-7.3435,-7.3553,-7.3606,-7.3714,-7.3754,-7.3715,-7.3915,-7.3966,-7.4131,-7.4177,-7.4218,-7.425,-7.4198,-7.4404,-7.4423,-7.4441,-7.4506,-7.4531,-7.4229,-7.4228,-7.4228,-7.4227,0,-7.3347,-7.3452,-7.3536,-7.3644,-7.3711,-7.3825,-7.3857,-7.3923,-7.3924,-7.3954,-7.4093,-7.4154,-7.4254,-7.4294,-7.4294,-7.4459,-7.4436,-7.4401,-7.433,-7.4472,-7.4533,-7.4558,-7.4237,-7.4235,-7.4233,-7.4232,0,0,-7.3548,-7.3666,-7.3697,-7.3746,-7.3838,-7.3919,-7.4031,-7.4133,-7.4189,-7.4264,-7.4359,-7.4495,-7.4464,-7.452,-7.4526,-7.4603,-7.475,-7.4558,-7.456,-7.4592,-7.4936,-7.4962,-7.499,-7.4737,-7.4742,-7.4746,-7.4929,0,-7.3722,-7.3924,-7.3943,-7.4123,-7.422,-7.4205,-7.4303,-7.437,-7.4402,-7.4488,-7.4521,-7.4618,-7.4569,-7.4603,-7.4678,-7.4716,-7.4819,-7.4703,-7.4824,-7.4828,-7.4806,-7.5022,-7.505,-7.522,-7.4953,-7.4957,-7.496,0,-7.3952,-7.4037,-7.4228,-7.4309,-7.435,-7.4439,-7.4534,-7.4616,-7.4691,-7.4709,-7.4773,-7.477,-7.4885,-7.4812,-7.497,-7.4891,-7.4942,-7.4968,-7.4975,-7.4986,-7.4903,-7.5039,-7.5274,-7.53,-7.4998,-7.4995,-7.4992,0,-7.4081,-7.4243,-7.4378,-7.4421,-7.4518,-7.4581,-7.4624,-7.4694,-7.4755,-7.4837,-7.4876,-7.497,-7.5021,-7.5093,-7.5115,-7.5059,-7.5273,-7.5201,-7.529,-7.529,-7.5336,-7.5332,-7.5582,-7.5369,-7.5368,-7.5368,-7.5367,0,-7.4273,-7.439,-7.4438,-7.4521,-7.4652,-7.4672,-7.4801,-7.484,-7.4904,-7.4994,-7.4985,-7.5069,-7.5094,-7.5182,-7.5199,-7.5328,-7.5351,-7.5368,-7.5371,-7.5369,-7.5367,-7.5402,-7.539,-7.5374,-7.5373,-7.5372,-7.537,0,-7.4438,-7.4475,-7.4622,-7.4703,-7.4726,-7.4819,-7.4888,-7.4967,-7.4998,-7.5112,-7.514,-7.5188,-7.5291,-7.5321,-7.5444,-7.5456,-7.5608,-7.56,-7.5583,-7.5583,-7.5671,-7.5663,-7.5952,-7.5991,-7.5752,-7.5754,-7.5756,0,-7.4559,-7.4649,-7.4741,-7.4802,-7.4849,-7.4946,-7.5009,-7.5032,-7.5097,-7.5191,-7.5259,-7.5362,-7.5446,-7.5611,-7.5656,-7.575,-7.5745,-7.584,-7.5758,-7.5754,-7.5746,-7.5741,-7.575,-7.5855,-7.5857,-7.5859,-7.5861,0,-7.4769,-7.4783,-7.4874,-7.4973,-7.5048,-7.5126,-7.5201,-7.5251,-7.5285,-7.5358,-7.5465,-7.553,-7.5658,-7.576,-7.5856,-7.5898,-7.5886,-7.5886,-7.5912,-7.591,-7.5897,-7.5906,-7.5625,-7.5879,-7.5877,-7.5876,-7.5875,-7.5874,-7.4916,-7.4996,-7.5074,-7.5176,-7.5236,-7.5307,-7.5386,-7.5429,-7.5519,-7.5627,-7.5635,-7.5751,-7.5824,-7.5952,-7.6,-7.609,-7.6062,-7.6099,-7.6108,-7.6117,-7.6125,-7.5884,-7.6107,-7.6107,-7.6106,-7.6106,-7.6106,0,-7.5126,-7.5176,-7.527,-7.5377,-7.5457,-7.5441,-7.5523,-7.5591,-7.5694,-7.5765,-7.5849,-7.5972,-7.6072,-7.6125,-7.6224,-7.6285,-7.6282,-7.631,-7.6306,-7.6316,-7.6144,-7.6112,-7.6312,-7.6312,-7.6312,-7.6312,-7.6312,-7.6312,-7.5245,-7.538,-7.5404,-7.5569,-7.5617,-7.5733,-7.5782,-7.5847,-7.5904,-7.6043,-7.6127,-7.6162,-7.6226,-7.6329,-7.6419,-7.6432,-7.6469,-7.6501,-7.651,-7.6349,-7.6328,-7.6308,-7.6278,-7.6509,-7.6509,-7.6675,-7.6676,-7.6677]}]]